DLH23C ENGM-EDDB

Flight info

Callsign DLH23C
Flight time N/A
Altitude 39000
Route OKSAT L996 KELIN DCT SALLO DCT RODEP T280 KETAP KETAP1R
Aircraft A346/H-SDE2E3FGHIJ3J4J5M1RWXY/LB1D1

Departure

Time 2026-05-05 12:59
Airport Oslo-Gardermoen International Airport (ENGM)

Arrival

Time N/A
Airport Berlin Brandenburg Airport (EDDB)
Time Latitude Longitude Altitude Speed Heading
2026-05-05 12:39 60.19732 11.09952 689 ft 0 kts 105°
2026-05-05 12:48 60.19736 11.09925 680 ft 4 kts 105°
2026-05-05 12:48 60.19742 11.09873 680 ft 4 kts 105°
2026-05-05 12:48 60.19749 11.09821 680 ft 4 kts 105°
2026-05-05 12:48 60.19753 11.09783 680 ft 4 kts 82°
2026-05-05 12:49 60.19754 11.09772 680 ft 4 kts 32°
2026-05-05 12:49 60.19740 11.09769 680 ft 4 kts
2026-05-05 12:49 60.19714 11.09763 679 ft 4 kts 12°
2026-05-05 12:49 60.19706 11.09759 679 ft 0 kts 16°
2026-05-05 12:52 60.19708 11.09760 679 ft 1 kts 16°
2026-05-05 12:52 60.19727 11.09772 680 ft 4 kts 16°
2026-05-05 12:53 60.19752 11.09786 688 ft 7 kts 16°
2026-05-05 12:53 60.19807 11.09818 683 ft 10 kts 16°
2026-05-05 12:53 60.19885 11.09864 687 ft 13 kts 16°
2026-05-05 12:53 60.19983 11.09921 685 ft 16 kts 16°
2026-05-05 12:54 60.20010 11.10284 684 ft 18 kts 105°
2026-05-05 12:54 60.19969 11.10571 687 ft 24 kts 107°
2026-05-05 12:54 60.19919 11.10909 691 ft 26 kts 106°
2026-05-05 12:55 60.19866 11.11282 692 ft 28 kts 106°
2026-05-05 12:55 60.19819 11.11600 689 ft 18 kts 114°
2026-05-05 12:55 60.19723 11.11621 690 ft 17 kts 195°
2026-05-05 12:55 60.19586 11.11541 691 ft 24 kts 197°
2026-05-05 12:56 60.19410 11.11439 690 ft 29 kts 196°
2026-05-05 12:56 60.19204 11.11319 694 ft 29 kts 196°
2026-05-05 12:56 60.19024 11.11214 687 ft 28 kts 196°
2026-05-05 12:56 60.18830 11.11103 689 ft 30 kts 195°
2026-05-05 12:57 60.18622 11.10986 687 ft 32 kts 196°
2026-05-05 12:57 60.18402 11.10859 685 ft 33 kts 196°
2026-05-05 12:57 60.18177 11.10727 684 ft 34 kts 196°
2026-05-05 12:57 60.17971 11.10604 686 ft 30 kts 196°
2026-05-05 12:58 60.17796 11.10501 682 ft 20 kts 194°
2026-05-05 12:58 60.17708 11.10643 684 ft 19 kts 107°
2026-05-05 12:58 60.17742 11.10861 681 ft 19 kts 25°
2026-05-05 12:58 60.17923 11.10977 683 ft 52 kts 16°
2026-05-05 12:59 60.18514 11.11314 685 ft 124 kts 15°
2026-05-05 12:59 60.19551 11.11898 733 ft 179 kts 13°
2026-05-05 12:59 60.20770 11.12660 1420 ft 184 kts 18°
2026-05-05 13:00 60.22017 11.16988 2992 ft 200 kts 83°
2026-05-05 13:00 60.22080 11.19886 3448 ft 215 kts 85°
2026-05-05 13:01 60.22584 11.29921 4993 ft 267 kts 79°
2026-05-05 13:01 60.22961 11.33740 5551 ft 284 kts 75°
2026-05-05 13:01 60.23457 11.37724 6115 ft 302 kts 73°
2026-05-05 13:01 60.23998 11.41923 6713 ft 314 kts 74°
2026-05-05 13:02 60.24228 11.46358 7638 ft 322 kts 97°
2026-05-05 13:02 60.23397 11.50533 8712 ft 323 kts 128°
2026-05-05 13:02 60.21678 11.53363 9834 ft 320 kts 158°
2026-05-05 13:02 60.19536 11.54437 10876 ft 319 kts 173°
2026-05-05 13:03 60.17320 11.55190 11868 ft 326 kts 172°
2026-05-05 13:03 60.15078 11.56053 12894 ft 332 kts 171°
2026-05-05 13:03 60.12739 11.57051 13658 ft 348 kts 170°
2026-05-05 13:03 60.10317 11.58164 14147 ft 366 kts 170°
2026-05-05 13:04 60.07773 11.59386 14603 ft 385 kts 171°
2026-05-05 13:04 60.05123 11.60683 15227 ft 397 kts 171°
2026-05-05 13:04 60.02424 11.62024 16095 ft 402 kts 172°
2026-05-05 13:04 59.99652 11.63407 17001 ft 407 kts 173°
2026-05-05 13:05 59.96890 11.64774 17874 ft 412 kts 174°
2026-05-05 13:05 59.94088 11.66151 18662 ft 417 kts 176°
2026-05-05 13:05 59.91249 11.67362 19413 ft 419 kts 179°
2026-05-05 13:05 59.88377 11.68483 20175 ft 422 kts 180°
2026-05-05 13:06 59.85468 11.69596 20946 ft 427 kts 181°
2026-05-05 13:06 59.82543 11.70717 21703 ft 431 kts 181°
2026-05-05 13:06 59.79581 11.71857 22452 ft 436 kts 181°
2026-05-05 13:06 59.76592 11.73010 23188 ft 440 kts 182°
2026-05-05 13:07 59.73567 11.74176 23816 ft 444 kts 182°
2026-05-05 13:07 59.70407 11.75388 24414 ft 448 kts 181°
2026-05-05 13:07 59.67333 11.76569 25047 ft 451 kts 181°
2026-05-05 13:07 59.64236 11.77762 25637 ft 455 kts 180°
2026-05-05 13:08 59.61118 11.78968 26239 ft 458 kts 180°
2026-05-05 13:08 59.57979 11.80181 26822 ft 461 kts 180°
2026-05-05 13:08 59.54817 11.81404 27415 ft 465 kts 179°
2026-05-05 13:08 59.51625 11.82637 27988 ft 468 kts 179°
2026-05-05 13:09 59.48423 11.83872 28573 ft 471 kts 179°
2026-05-05 13:09 59.45255 11.85095 29351 ft 469 kts 179°
2026-05-05 13:09 59.42056 11.86335 30245 ft 465 kts 179°
2026-05-05 13:09 59.38900 11.87553 30995 ft 462 kts 179°
2026-05-05 13:10 59.35746 11.88761 31642 ft 461 kts 179°
2026-05-05 13:10 59.32593 11.89962 32239 ft 462 kts 179°
2026-05-05 13:10 59.29438 11.91162 32849 ft 462 kts 179°
2026-05-05 13:10 59.26287 11.92358 33471 ft 462 kts 178°
2026-05-05 13:11 59.23124 11.93557 34057 ft 462 kts 178°
2026-05-05 13:11 59.19974 11.94747 34543 ft 462 kts 178°
2026-05-05 13:11 59.16817 11.95934 35008 ft 463 kts 178°
2026-05-05 13:11 59.13657 11.97121 35446 ft 464 kts 177°
2026-05-05 13:12 59.10480 11.98314 35882 ft 464 kts 177°
2026-05-05 13:12 59.07307 11.99505 36317 ft 465 kts 176°
2026-05-05 13:12 59.04129 12.00696 36731 ft 465 kts 176°
2026-05-05 13:12 59.00951 12.01886 37124 ft 466 kts 176°
2026-05-05 13:13 58.97769 12.03075 37484 ft 467 kts 176°
2026-05-05 13:13 58.94564 12.04269 37794 ft 469 kts 175°
2026-05-05 13:13 58.91347 12.05467 38080 ft 472 kts 175°
2026-05-05 13:13 58.88118 12.06666 38350 ft 474 kts 175°
2026-05-05 13:14 58.84873 12.07870 38626 ft 476 kts 175°
2026-05-05 13:14 58.81616 12.09077 38845 ft 478 kts 175°
2026-05-05 13:14 58.75064 12.11501 38933 ft 480 kts 175°
2026-05-05 13:15 58.68513 12.13915 38936 ft 480 kts 175°
2026-05-05 13:15 58.61994 12.16304 38943 ft 480 kts 175°
2026-05-05 13:16 58.55431 12.18698 38945 ft 480 kts 175°
2026-05-05 13:16 58.48872 12.21081 38948 ft 480 kts 175°
2026-05-05 13:17 58.42310 12.23456 38952 ft 480 kts 175°
2026-05-05 13:17 58.35746 12.25822 38950 ft 480 kts 175°
2026-05-05 13:18 58.29174 12.28183 38952 ft 480 kts 175°
2026-05-05 13:18 58.22616 12.30529 38962 ft 480 kts 175°
2026-05-05 13:19 58.16036 12.32875 38958 ft 480 kts 175°
2026-05-05 13:19 58.09475 12.35205 38953 ft 479 kts 175°
2026-05-05 13:20 58.02918 12.37524 38956 ft 479 kts 175°
2026-05-05 13:20 57.96365 12.39834 38956 ft 479 kts 175°
2026-05-05 13:21 57.89827 12.42130 38954 ft 479 kts 175°
2026-05-05 13:21 57.83273 12.44423 38955 ft 479 kts 175°
2026-05-05 13:22 57.76691 12.46718 38953 ft 478 kts 175°
2026-05-05 13:22 57.70149 12.48990 38955 ft 478 kts 175°
2026-05-05 13:23 57.63611 12.51253 38952 ft 478 kts 175°
2026-05-05 13:23 57.57071 12.53507 38955 ft 477 kts 175°
2026-05-05 13:24 57.50546 12.55749 38954 ft 477 kts 175°
2026-05-05 13:24 57.44023 12.57982 38958 ft 476 kts 175°
2026-05-05 13:25 57.37504 12.60206 38966 ft 476 kts 175°
2026-05-05 13:25 57.30993 12.62419 38962 ft 476 kts 175°
2026-05-05 13:26 57.24488 12.64622 38961 ft 475 kts 175°
2026-05-05 13:26 57.17988 12.66814 38962 ft 475 kts 175°
2026-05-05 13:27 57.11492 12.68998 38966 ft 474 kts 175°
2026-05-05 13:27 57.04998 12.71173 38967 ft 474 kts 175°
2026-05-05 13:28 56.98501 12.73341 38961 ft 474 kts 175°
2026-05-05 13:28 56.92010 12.75500 38958 ft 474 kts 175°
2026-05-05 13:29 56.85518 12.77651 38956 ft 474 kts 175°
2026-05-05 13:29 56.79023 12.79795 38953 ft 474 kts 175°
2026-05-05 13:30 56.72520 12.81935 38955 ft 475 kts 175°
2026-05-05 13:30 56.66015 12.84067 38953 ft 475 kts 175°
2026-05-05 13:31 56.59550 12.86180 38956 ft 475 kts 175°
2026-05-05 13:31 56.52998 12.88314 38960 ft 476 kts 175°
2026-05-05 13:32 56.46414 12.90451 38965 ft 476 kts 175°
2026-05-05 13:32 56.42362 12.91764 38956 ft 475 kts 175°